Location: New Town
(33.2710°N, 90.7534°W)
Time: 12:43:40
(UTC+00:00)

Explorer 11/Cluster Stage 4 - Pass Details

Date: 14 May 2021
Orbit: 467 x 1257 km, 28.8° (Epoch: 14 June)

Event Time Altitude Azimuth Distance (km) Brightness Sun altitude
Rises 03:32:16 0° 259° (WSW) 4,169 10.7 -27.3°
Reaches altitude 10° 03:35:12 10° 256° (WSW) 3,224 10.0 -27.7°
Maximum altitude 03:43:21 64° 177° (S) 1,344 7.4 -28.7°
Enters shadow 03:43:35 64° 169° (S) 1,344 7.4 -28.8°
Drops below altitude 10° 03:50:55 10° 98° (E) 3,003 - -29.7°
Sets 03:53:34 0° 95° (E) 3,870 - -30.0°
